{"data":{"norad_id":63001,"intl_designator":"2025-031W","name":"STARLINK-32437","alt_names":[],"object_type":"PAYLOAD","status":"ACTIVE","operator":null,"country":"US","launch_date":"2025-02-11","launch_site_code":"AFETR","launch_vehicle":null,"mission":null,"orbit_class":"UNKNOWN","rcs_meters":null,"size_class":null,"mass_kg":null,"dimensions":null,"purposes":["comms"],"wikipedia_slug":null,"has_3d_model":false,"image_url":null,"decayed_at":null,"tle_current":{"epoch":"2026-05-25T02:00:27.082656Z","epoch_age_seconds":74742,"freshness":"FRESH","line1":"1 63001U 25031W   26145.08364679  .00014863  00000+0  54837-3 0  9993","line2":"2 63001  42.9985  72.3406 0000787 257.0401 103.0363 15.27589926 72775","mean_motion":15.27589926,"eccentricity":7.87e-5,"inclination_deg":42.9985,"raan_deg":72.3406,"arg_perigee_deg":257.0401,"mean_anomaly_deg":103.0363,"bstar":0.00054837,"rev_number":7277,"period_min":94.266136185556,"perigee_km":482.47940117909,"apogee_km":483.55934719238,"semimajor_km":6861.1563741857,"source":"CELESTRAK","updated_at":"2026-05-25T13:38:19.834391Z"}}}